Showing default

EUTE 36D, 59346

Orbit data source: Space-Track

EUTE 36D, 59346 is a payload satellite owned by EutelsatSA (FR) in GEO that was launched on Sat, 30 Mar 2024 UTC via an FALCON 9 launch vehicle from the Air Force Eastern Test Range (AFETR). Payload-class satellites include a variety of spacecraft equipped with specific instruments for various scientific and technological missions. These include communications satellites like Starlink; space stations such as the ISS; scientific satellites like the Hubble; Earth observation satellites from companies like Planet Labs, Umbra, and HawkEye 360; GPS; miniature CubeSats for education and research; and military/defense satellites.

Not visible in the next 10 days
Identifier
59346, 2024-059A
Orbit
GEO
Last TLE update
16 hours ago
Origin
Manufacturer
ADST/ADSUK
Mission
Operational Commercial Communications
Bus & Motor
EUROSTAR NEO, PPS-5000
Mass
5,000 kg wet, ~5,000 kg dry
Launch date (UTC)
2024-03-30 (1 year ago)
Launch vehicle
FALCON 9
Launch site
Air Force Eastern Test Range (AFETR)
Object type
Payload
Rocket body
Debris
Shape & HBR
Box + 2 Pan, 40 m
Radar Cross Section
58.239 m², Large (>1 m²)

Expand to show TLE details & history

TLE from 16 hours ago
0 EUTE 36D
1 59346U 24059A   25189.65169115  .00000171  00000-0  00000-0 0  9995
2 59346   0.0176 357.3063 0000567 149.5234  50.4676  1.00271625  4709
Epoch: 2025-07-08T15:38Z
TLE epoch observation values (Epoch: 2025-07-08T15:38:26.115Z)
Latitude
-0.00806°
Longitude
35.85153°
Altitude
35,784.619 km
Speed
3.075 km/s
True Right ascension
13h 09m 12s
True Declination
0° 00' 29"
Sunlit
Object was in daylight at epoch
Visualization orbit readout
Latitude
0.03901°
Longitude
-84.54312°
Altitude
35,785.201 km
Speed
3.075 km/s
Apparent Right ascension
05h 22m 59s
Apparent Declination
-5° 00' 51"
Sunlit
Object is in daylight
Visualization observer readout
Local Sidereal Time
19:43:48
Azimuth
51.59° ENE
Elevation
-42.876°
Doppler factor
1
Orbital elements
Apogee altitude
35,790.101 km
Perigee altitude
35,785.319 km
Semi-major axis
42,165.847 km
Eccentricity
0.00006
Inclination
0.0176°
RAAN
357.3063°
Arg. of periapsis
149.5234°
True anomaly
Unknown
Mean anomaly
50.4676°
Eccentric anomaly
Unknown
Mean motion
0.25067 °/min
Orbital period
1,436.15 mins
BSTAR
0
Loading historical data...
59346 neighbors
Loading maneuver chart data...
Loading SW <> Apogee altitude chart data...
Loading historical data...
Loading historical data...
Loading historical data...
Loading historical data...
Loading historical data...
Loading historical data...
Loading historical data...
Other satellites on launch #59 in the year 2024 (2024-03-30 UTC)

EUTE 36D Visibility

Observer location: undefined°, undefined°

EUTE 36D is likely not visible in the next few days
Span
Click to sort rows by Start time (UTC) header in descending order
Start Az.
Max El. time (UTC)
Max El. Az.
Max El.
End time (UTC)
End Az.
|